This is the latest recevied weather packets stored in our database for station/object S55YIZ-7. If no packets are shown the sender has not sent any weather packets the latest 10 day(s).
| Time | Temp. | Humidity | Pressure | Rain* | Wind** | Luminosity | Snow |
|---|---|---|---|---|---|---|---|
| 1777164855 | 16.67° C | 40% | 1016.2 hPa | - | - | - | - |
| 1777163993 | 16.67° C | 40% | 1016.3 hPa | - | - | - | - |
| 1777163955 | 16.67° C | 40% | 1016.3 hPa | - | - | - | - |
| 1777163152 | 17.22° C | 37% | 1016.4 hPa | - | - | - | - |
| 1777163055 | 17.22° C | 37% | 1016.4 hPa | - | - | - | - |
| 1777162155 | 17.22° C | 37% | 1016.5 hPa | - | - | - | - |
| 1777161308 | 17.22° C | 38% | 1016.6 hPa | - | - | - | - |
| 1777161255 | 17.22° C | 38% | 1016.6 hPa | - | - | - | - |
| 1777160401 | 17.22° C | 39% | 1016.6 hPa | - | - | - | - |
| 1777160354 | 17.22° C | 39% | 1016.6 hPa | - | - | - | - |
| 1777159454 | 16.67° C | 45% | 1016.6 hPa | - | - | - | - |
| 1777158554 | 16.67° C | 47% | 1016.7 hPa | - | - | - | - |
| 1777157654 | 16.67° C | 49% | 1016.7 hPa | - | - | - | - |
| 1777156754 | 16.67° C | 51% | 1016.8 hPa | - | - | - | - |
| 1777155854 | 16.67° C | 44% | 1016.9 hPa | - | - | - | - |
| 1777154954 | 17.22° C | 42% | 1016.6 hPa | - | - | - | - |
| 1777154053 | 17.22° C | 44% | 1016.5 hPa | - | - | - | - |
| 1777153153 | 17.22° C | 42% | 1016.5 hPa | - | - | - | - |
| 1777152253 | 17.78° C | 42% | 1016.5 hPa | - | - | - | - |
| 1777151353 | 17.22° C | 43% | 1016.3 hPa | - | - | - | - |
| 1777150453 | 17.78° C | 43% | 1016.3 hPa | - | - | - | - |
| 1777149553 | 17.78° C | 42% | 1016.3 hPa | - | - | - | - |
| 1777148653 | 17.78° C | 40% | 1016.2 hPa | - | - | - | - |
| 1777147752 | 18.33° C | 39% | 1016.4 hPa | - | - | - | - |
| 1777146852 | 18.33° C | 38% | 1016.3 hPa | - | - | - | - |
* Rain since midnight (hover to see other rain measurements)
** Current wind speed in m/s (hover to see current wind gust speed)